KUIPER-00502

导读

**KUIPER-00502(NORAD 68883)卫星摘要** KUIPER-00502(NORAD编号68883)是亚马逊Kuiper(现名Amazon Leo)低轨卫星互联网星座的组网卫星,属于美国主导的全球宽带卫星通信项目。该卫星运行于近地轨道,是Kuiper星座规模化部署的组成单元,旨在为全球网络覆盖不足地区提供高速低延迟互联网服务,支撑个人、企业及政府多场景卫星互联应用。作为Kuiper星座加速建设阶段发射的卫星之一,它助力构建覆盖全球的低轨卫星通信基础设施,推动卫星互联网服务的普及。(150字)

基本信息
目录编号:
68883
目录名称:
KUIPER-00502
国际标识:
2026-095V
轨道中心:
EARTH
卫星名称:
KUIPER-00502
卫星全名:
KUIPER-00502
卫星状态:
在轨 (已飞行137 天)
发射日期:
2026-04-28 UTC
国别 :
美国 (US)
星等 :
--
该卫星已列入 空间交会检测服务 Space Conjunction Data Service (SCDS) ,当前飞行风险评估等级: 无高风险
轨道信息
数据来源 国际轨道数据
星历时间: 2026-09-11T21:16:38+0800
14小时前
查看轨道信息
半长轴: 7007.68km
偏心率: 0.0001125
轨道倾角: 51.899°
近地点辐角 50.992°
升交点赤经 205.004°
平近点角 309.114°
近地点: 628.754km
远地点: 630.332km
周期: 97.302分钟
每日圈数: 14.799308
详细信息
使用方式:
暂无
2D轨道图
3D轨道图
轨道高度分析图
轨道倾角分析图
轨道综合分析图
查看轨道综合分析图
与全量物体交会距离演化趋势
与全量物体交会风险概率演化趋势